Regional Weather Roundup
Issued by NWS Newport/Morehead, NC

Current Version | Previous Version | Text Only | Print | Product List | Glossary On
Versions: 1 2 3 4 5 6 7 8 9 10 11 12 13 14 15 16 17 18 19 20 21 22 23 24 25 26 27 28 29 30 31 32 33 34 35 36 37 38 39 40 41 42 43 44 45 46 47 48 49 50
000
ASUS42 KMHX 221512
RWRMHX
WEATHER ROUNDUP FOR EASTERN NORTH CAROLINA
NATIONAL WEATHER SERVICE NEWPORT/MOREHEAD CITY NC
1100 AM EDT FRI MAY 22 2015

NOTE: "FAIR" INDICATES FEW OR NO CLOUDS BELOW 12,000 FEET
WITH NO SIGNIFICANT WEATHER AND/OR OBSTRUCTIONS TO VISIBILITY

NCZ015>017-031-032-045>047-102-103-221600-
NORTH COAST

CITY           SKY/WX    TMP DP  RH WIND       PRES   REMARKS
EDENTON        SUNNY     64  48  56 N7        30.15S
ELIZABETH CITY SUNNY     66  49  54 N8        30.14R
KITTY HAWK     SUNNY     64  51  63 N10       30.13R
MANTEO         MOSUNNY   64  49  59 N9G17     30.14R

$$

NCZ045>047-081-094-103-104-221600-
CENTRAL COAST

CITY           SKY/WX    TMP DP  RH WIND       PRES   REMARKS
FRISCO         MOSUNNY   64  52  64 N8        30.14R
SWANQUARTER      N/A     66 N/A N/A NW3G14    30.12S

$$

NCZ095-097-098-100-101-221600-
SOUTHERN COAST

CITY           SKY/WX    TMP DP  RH WIND       PRES   REMARKS
BEAUFORT       MOSUNNY   66  52  60 N15G21    30.16R
CEDAR ISLAND     N/A     64 N/A N/A NW9G16    30.18S
JACKSONVILLE   MOSUNNY   66  51  58 N12       30.16R
PINEY ISLAND   MOSUNNY  N/A N/A N/A NW12      30.16R
WILMINGTON     CLOUDY    67  54  63 NE13      30.17R


$$

NCZ011>013-027>030-043-044-078>080-089-090>093-098-221600-
COASTAL PLAIN

CITY           SKY/WX    TMP DP  RH WIND       PRES   REMARKS
AHOSKIE        SUNNY     63  43  47 N8        30.17R
CLINTON        PTSUNNY   65  50  58 N6        30.19R
ELIZABETHTOWN  PTSUNNY   66  50  56 NE3       30.18R
GOLDSBORO      SUNNY     66  47  50 VRB2      30.16R
GREENVILLE     MOSUNNY   64  48  55 N7        30.18R
HAVELOCK       PTSUNNY   67  51  56 NE12G18   30.17R
KENANSVILLE    MOSUNNY   64  47  53 N5        30.18S
KINSTON        MOSUNNY   64  48  55 N7        30.18R
NEW BERN       MOSUNNY   66  50  56 N9        30.18R
RICHLANDS      PTSUNNY   64  48  55 N9        30.17S
ROCKY MOUNT    SUNNY     66  45  46 N13       30.18R
WASHINGTON     SUNNY    N/A N/A N/A N8        30.16S
WHITEVILLE     MOSUNNY   66  51  57 N5        30.17R

$$

AMZ130-135-150-152-154-156-158-170-250-252-270-ANZ085-086-088-633-658-670-221600-
MARINE OBSERVATIONS

STATION/POSITION TIME  TEMP    WIND        PRES    WAVE   SWELL
                       AIR SEA DIR/SP/G            HT/PER HT/PER
                 (UTC) (F)     (DEG/KT/KT) (MB)    (FT/S) (FT/S)
CHESAPEAKE LIGHT 1400   60     340/ 16/ 18 1019.9
64 E VA BEACH    1450   59 60  330/ 14/ 16 1018.8    6/ 8   5/ 8
DUCK             1400   59 66  350/ 12/ 14 1018.9
2 E DUCK         1411      64                N/A     4/ 6
OREGON INLET     1400   61 68  340/ 12/ 16 1019.9
13E OREGON INLT  1500      62                N/A     5/ 6
HATTERAS CG      1400   62 71  350/ 14/ 17 1019.7
DIAMOND BUOY     1450   62 76  360/ 14/ 19 1020.2    4/ 7   3/ 7
CAPE LOOKOUT     1500   64     360/ 13/ 17 1020.9
BEAUFORT LAB     1400   63 73   10/  9/ 17 1019.9
27 SE WRIGHTSVLE 1400   62 77   40/ 16/ 17   N/A
5 SE WRIGHTSVLE  1408   65 76   30/ 16/ 21 1020.8
225 S CAPE HAT   1450   74 75   40/ 14/ 17 1017.9    4/ 6
41 SE CHARLESTON 1450   69 76   30/ 21/ 27 1018.9    6/ 6   2/13

$$


USA.gov is the U.S. government's official web portal to all federal, state and local government web resources and services.